Weather History for Waterloo, IA

Change the Weather History Date:

Tuesday, May 14, 2013

  Actual Average Record
Temperature  
Mean Temperature 74 °F 60 °F  
Max Temperature 96 °F 71 °F 96 °F (2013)
Min Temperature 52 °F 48 °F 28 °F (1895)
Degree Days  
Heating Degree Days 0 6  
Month to date heating degree days 168 115  
Since 1 July heating degree days 7179 6931  
Cooling Degree Days 9 1  
Month to date cooling degree days 9 14  
Year to date cooling degree days 13 22  
Growing Degree Days 24 (Base 50)    
Moisture  
Dew Point 51 °F    
Average Humidity 53    
Maximum Humidity 86    
Minimum Humidity 20    
Precipitation  
Precipitation 0.00 in 0.14 in 2.33 in (1945)
Month to date precipitation 2.82 1.97  
Year to date precipitation 15.59 9.56  
Snow  
Snow 0.00 in 0.00 in - ()
Month to date snowfall 1.7 0.0  
Since 1 July snowfall 50.0 35.3  
Snow Depth 0.00 in    
Sea Level Pressure  
Sea Level Pressure 29.67 in    
Wind  
Wind Speed 13 mph (SW)    
Max Wind Speed 33 mph    
Max Gust Speed 40 mph    
Visibility 10 miles    
Events      
T = Trace of Precipitation, MM = Missing Value Source: NWS Daily Summary

Daily Weather History Graph

Daily Weather History Graph

Search for Another Location

Airport:

Trip Planner

Search our weather history database for the weather conditions in past years. The results will help you decide how hot, cold, wet, or windy it might be!

Date:

Astronomy

May. 14, 2013 Rise Set
Actual Time 5:48 AM CDT 8:24 PM CDT
Civil Twilight 5:16 AM CDT 8:56 PM CDT
Nautical Twilight 4:35 AM CDT 9:36 PM CDT
Astronomical Twilight 3:50 AM CDT 10:22 PM CDT
Moon 9:28 AM CDT (5/14) No Moon Set
Length of Visible Light 15h 40m
Length of Day
14h 35m
Waxing Crescent, 19% of the Moon is Illuminated
May 14
Waxing Crescent
May 17
First Quarter
May 24
Full
May 31
Last Quarter
Jun 8
New

Hourly Weather History & Observations

Time (CDT) Temp. Heat Index Dew Point Humidity Pressure Visibility Wind Dir Wind Speed Gust Speed Precip Events Conditions
12:54 AM 60.1 °F - 46.0 °F 60% 29.79 in 10.0 mi South 10.4 mph 21.9 mph N/A   Clear
1:54 AM 60.1 °F - 46.9 °F 62% 29.77 in 10.0 mi South 8.1 mph - N/A   Clear
2:54 AM 61.0 °F - 48.9 °F 64% 29.75 in 10.0 mi SSW 8.1 mph - N/A   Clear
3:54 AM 60.1 °F - 50.0 °F 69% 29.75 in 10.0 mi SW 6.9 mph - N/A   Clear
4:54 AM 55.9 °F - 50.0 °F 80% 29.75 in 10.0 mi WSW 3.5 mph - N/A   Clear
5:54 AM 55.0 °F - 48.9 °F 80% 29.75 in 10.0 mi SSW 3.5 mph - N/A   Clear
6:54 AM 55.9 °F - 52.0 °F 87% 29.75 in 10.0 mi SSW 4.6 mph - N/A   Clear
7:54 AM 63.0 °F - 53.1 °F 70% 29.75 in 10.0 mi SSW 6.9 mph - N/A   Clear
8:54 AM 69.1 °F - 55.0 °F 61% 29.75 in 10.0 mi WSW 8.1 mph - N/A   Clear
9:54 AM 75.9 °F - 57.0 °F 52% 29.73 in 10.0 mi SSW 4.6 mph - N/A   Clear
10:54 AM 82.9 °F 82.4 °F 57.0 °F 41% 29.71 in 10.0 mi SSW 10.4 mph - N/A   Clear
11:54 AM 87.1 °F 85.3 °F 55.0 °F 33% 29.69 in 10.0 mi South 11.5 mph 17.3 mph N/A   Clear
12:54 PM 91.0 °F - 46.0 °F 21% 29.66 in 10.0 mi South 18.4 mph - N/A   Clear
1:54 PM 93.0 °F - 50.0 °F 23% 29.64 in 10.0 mi SSW 17.3 mph 29.9 mph N/A   Clear
2:54 PM 93.9 °F - 51.1 °F 23% 29.60 in 10.0 mi SSW 19.6 mph 29.9 mph N/A   Clear
3:54 PM 95.0 °F - 50.0 °F 22% 29.57 in 10.0 mi SW 29.9 mph 34.5 mph N/A   Clear
4:54 PM 95.0 °F - 48.9 °F 21% 29.54 in 10.0 mi SSW 28.8 mph 40.3 mph N/A   Clear
5:54 PM 91.9 °F 89.5 °F 54.0 °F 27% 29.53 in 10.0 mi SW 21.9 mph 31.1 mph N/A   Clear
6:54 PM 90.0 °F 87.7 °F 54.0 °F 29% 29.53 in 10.0 mi SW 23.0 mph 33.4 mph N/A   Clear
7:54 PM 88.0 °F 85.9 °F 54.0 °F 31% 29.54 in 10.0 mi SW 20.7 mph 29.9 mph N/A   Clear
8:54 PM 86.0 °F 84.2 °F 54.0 °F 33% 29.55 in 10.0 mi SW 17.3 mph 28.8 mph N/A   Clear
9:54 PM 80.1 °F 80.2 °F 55.9 °F 43% 29.60 in 10.0 mi WNW 8.1 mph - N/A   Clear
10:54 PM 75.9 °F - 48.9 °F 38% 29.62 in 10.0 mi NNW 12.7 mph - N/A   Clear
11:54 PM 75.9 °F - 39.9 °F 27% 29.65 in 10.0 mi NW 12.7 mph - N/A   Clear